This is the latest recevied weather packets stored in our database for station/object N9OJR. If no packets are shown the sender has not sent any weather packets the latest 10 day(s).
| Time | Temp. | Humidity | Pressure | Rain* | Wind** | Luminosity | Snow |
|---|---|---|---|---|---|---|---|
| 1777918633 | 20.56° C | 59% | 1003.3 hPa | 0 mm | - | 661 W/m² | - |
| 1777918330 | 21.11° C | 59% | 1003.3 hPa | 0 mm | - | 631 W/m² | - |
| 1777918029 | 21.11° C | 58% | 1003.2 hPa | 0 mm | - | 671 W/m² | - |
| 1777917728 | 21.11° C | 59% | 1003.4 hPa | 0 mm | - | 704 W/m² | - |
| 1777917424 | 21.11° C | 59% | 1003.4 hPa | 0 mm | - | 695 W/m² | - |
| 1777917121 | 20.56° C | 58% | 1003.5 hPa | 0 mm | - | 699 W/m² | - |
| 1777916819 | 20.56° C | 58% | 1003.7 hPa | 0 mm | - | 698 W/m² | - |
| 1777916516 | 21.11° C | 58% | 1003.6 hPa | 0 mm | - | 713 W/m² | - |
| 1777916213 | 20.56° C | 57% | 1003.4 hPa | 0 mm | - | 701 W/m² | - |
| 1777915910 | 20.56° C | 57% | 1003.6 hPa | 0 mm | - | 709 W/m² | - |
| 1777915607 | 20° C | 57% | 1003.7 hPa | 0 mm | - | 714 W/m² | - |
| 1777915303 | 20.56° C | 56% | 1003.5 hPa | 0 mm | - | 714 W/m² | - |
| 1777915000 | 20.56° C | 56% | 1003.7 hPa | 0 mm | - | 714 W/m² | - |
| 1777914697 | 20.56° C | 56% | 1003.8 hPa | 0 mm | - | 703 W/m² | - |
| 1777914393 | 20.56° C | 56% | 1003.8 hPa | 0 mm | - | 718 W/m² | - |
| 1777914091 | 20.56° C | 58% | 1003.8 hPa | 0 mm | - | 729 W/m² | - |
| 1777913787 | 20.56° C | 56% | 1003.9 hPa | 0 mm | - | 724 W/m² | - |
| 1777913483 | 20° C | 59% | 1004.1 hPa | 0 mm | - | 717 W/m² | - |
| 1777913180 | 20° C | 55% | 1004.3 hPa | 0 mm | - | 724 W/m² | - |
| 1777912876 | 20° C | 58% | 1004.2 hPa | 0 mm | - | 718 W/m² | - |
| 1777912573 | 20° C | 56% | 1004.3 hPa | 0 mm | - | 737 W/m² | - |
| 1777912270 | 20° C | 55% | 1004.6 hPa | 0 mm | - | 756 W/m² | - |
| 1777911965 | 20° C | 56% | 1004.6 hPa | 0 mm | - | 725 W/m² | - |
| 1777911662 | 20° C | 58% | 1004 hPa | 0 mm | - | 706 W/m² | - |
| 1777911357 | 19.44° C | 56% | 1004.7 hPa | 0 mm | - | 744 W/m² | - |
* Rain latest hour (hover to see other rain measurements)
** Current wind speed in m/s (hover to see current wind gust speed)